Date String (YYYY-MM-DD hh:mm:ss) UTC,Instrument flags,absolute air pressure of the measurement (hPa),sample flow rate (lpm),inlet stack bypass flow (lpm),air temperature of the measurement (°C),ambient temperature measured by the external sensor (°C),aerosol sample conditioner tube jacket temperature (°C),OPC LED temperature (°C),internal box temperature (°C),relative humidity of the measurement (%),span deviation,mass concentration of particles derived from Lorenz-Mie calculation of OPC scattering (μg/m³),mass concentration of particles derived from Lorenz-Mie calculation of OPC scattering (μg/m³),mass concentration of particles derived from Lorenz-Mie calculation of OPC scattering (μg/m³)
DateTimeUTC,F1_M11,P_M11,Q1_M11,Q2_M11,T1_M11,T2_M11,T3_M11,T4_M11,T5_M11,U1_M11,ZSPAN_M11,X0_M11,X2_M11,X1_M11
2024-01-20 09:00:00,SystemResetWarning,0830.1,5.00,000.00,018.7,017.9,000.0,027.2,020.0,13.2,0001.5,0017.86,0010.06,0009.05
2024-01-20 09:01:00,SystemResetWarning,0830.2,4.99,000.00,018.7,017.9,000.0,027.2,020.0,13.2,0001.3,0018.27,0010.28,0009.14
2024-01-20 09:02:00,SystemResetWarning,0830.1,4.99,000.00,018.7,017.9,000.0,027.2,020.0,13.2,0001.6,0017.57,0010.38,0009.21
2024-01-20 09:03:00,SystemResetWarning,0830.1,4.99,000.00,018.7,017.9,000.0,027.2,020.0,13.2,0001.9,0017.83,0010.52,0009.29
2024-01-20 09:04:00,SystemResetWarning,0830.1,5.00,000.00,018.7,017.8,000.0,027.2,020.0,13.2,0001.7,0017.82,0010.62,0009.35
2024-01-20 09:05:00,SystemResetWarning,0830.1,5.00,000.00,018.7,017.8,000.0,027.2,020.0,13.2,0001.5,0018.84,0010.68,0009.38
2024-01-20 09:06:00,SystemResetWarning,0830.1,5.00,000.00,018.7,017.8,000.0,027.2,020.0,13.2,0001.5,0018.73,0010.69,0009.40
2024-01-20 09:07:00,SystemResetWarning,0830.0,5.00,000.00,018.7,017.8,000.0,027.2,020.0,13.2,0001.8,0019.50,0010.79,0009.44
2024-01-20 09:08:00,SystemResetWarning,0830.0,5.01,000.00,018.7,017.8,000.0,027.2,020.0,13.3,0001.9,0019.69,0010.86,0009.46
2024-01-20 09:09:00,SystemResetWarning,0830.0,5.00,000.00,018.7,017.8,000.0,027.2,020.1,13.3,0001.6,0019.29,0010.92,0009.50
2024-01-20 09:10:00,SystemResetWarning,0830.0,5.00,000.00,018.8,018.2,000.0,027.2,020.6,13.3,0001.8,0018.97,0010.93,0009.53
2024-01-20 09:11:00,SystemResetWarning,0830.1,5.00,000.00,019.0,019.0,000.0,027.2,020.9,13.2,0001.9,0018.73,0010.82,0009.52
2024-01-20 09:12:00,SystemResetWarning,0830.0,4.99,000.00,019.0,019.1,000.0,027.2,020.7,13.1,0001.6,0018.68,0010.67,0009.51
2024-01-20 09:13:00,SystemResetWarning,0830.0,4.99,000.00,019.1,018.9,000.0,027.2,020.5,13.1,0001.6,0018.70,0010.60,0009.51
2024-01-20 09:14:00,SystemResetWarning,0830.1,5.00,000.00,019.0,018.8,000.0,027.2,020.4,13.1,0001.5,0018.95,0010.57,0009.51
2024-01-20 09:15:00,SystemResetWarning,0830.0,5.00,000.00,019.0,018.7,000.0,027.2,020.3,13.1,0001.3,0019.17,0010.52,0009.49
2024-01-20 09:16:00,SystemResetWarning,0830.0,5.00,000.00,019.0,018.6,000.0,027.2,020.1,13.1,0001.3,0017.85,0010.35,0009.41
2024-01-20 09:17:00,SystemResetWarning,0830.0,5.00,000.00,018.9,018.5,000.0,027.2,020.0,13.0,0001.1,0018.08,0010.24,0009.36
2024-01-20 09:18:00,SystemResetWarning,0830.0,5.00,000.00,018.9,018.4,000.0,027.2,020.0,13.0,0001.6,0017.14,0010.13,0009.33
2024-01-20 09:19:00,SystemResetWarning,0830.0,5.00,000.00,018.9,018.3,000.0,027.2,020.0,13.0,0001.8,0016.79,0010.06,0009.29
2024-01-20 09:20:00,SystemResetWarning,0830.0,5.00,000.00,018.8,018.3,000.0,027.2,020.0,12.9,0001.8,0016.38,0009.97,0009.23
2024-01-20 09:21:00,SystemResetWarning,0830.0,5.01,000.00,018.8,018.2,000.0,027.2,020.0,12.6,0001.7,0016.71,0009.94,0009.20
2024-01-20 09:22:00,SystemResetWarning,0830.0,5.00,000.00,018.8,018.2,000.0,027.2,020.0,12.3,0001.5,0016.47,0009.91,0009.19
2024-01-20 09:23:00,SystemResetWarning,0830.0,5.00,000.00,018.8,018.1,000.0,027.2,020.0,12.0,0001.6,0016.52,0009.86,0009.15
2024-01-20 09:24:00,SystemResetWarning,0830.0,5.00,000.00,018.8,018.1,000.0,027.2,020.0,11.9,0001.5,0016.61,0009.86,0009.15
2024-01-20 09:25:00,SystemResetWarning,0830.1,5.00,000.00,018.8,018.0,000.0,027.3,020.0,11.8,0001.6,0016.90,0009.89,0009.13
2024-01-20 09:26:00,SystemResetWarning,0830.0,5.00,000.00,018.8,018.0,000.0,027.3,020.0,11.8,0001.6,0016.47,0009.83,0009.08
2024-01-20 09:27:00,SystemResetWarning,0830.0,5.00,000.00,018.8,018.0,000.0,027.2,020.0,11.7,0001.9,0016.19,0009.79,0009.05
2024-01-20 09:28:00,SystemResetWarning,0830.0,5.00,000.00,018.8,018.0,000.0,027.3,020.0,11.8,0002.2,0015.54,0009.70,0008.96
2024-01-20 09:29:00,SystemResetWarning,0830.0,4.99,000.00,018.7,017.9,000.0,027.3,020.0,11.8,0001.8,0015.06,0009.50,0008.80
2024-01-20 09:30:00,SystemResetWarning,0830.0,5.00,000.00,018.7,017.9,000.0,027.3,020.0,11.8,0001.5,0015.07,0009.32,0008.67
2024-01-20 09:31:00,SystemResetWarning,0830.0,5.00,000.00,018.7,017.9,000.0,027.3,020.0,11.8,0001.4,0015.26,0009.23,0008.58
2024-01-20 09:32:00,SystemResetWarning,0830.0,5.00,000.00,018.7,017.9,000.0,027.2,020.0,11.9,0001.5,0014.95,0009.06,0008.43
2024-01-20 09:33:00,SystemResetWarning,0830.0,5.00,000.00,018.7,017.9,000.0,027.2,020.0,11.9,0001.7,0014.68,0008.87,0008.28
2024-01-20 09:34:00,SystemResetWarning,0829.9,5.00,000.00,018.7,017.8,000.0,027.2,020.0,11.9,0002.1,0014.79,0008.75,0008.16
2024-01-20 09:35:00,SystemResetWarning,0829.9,5.00,000.00,018.7,017.8,000.0,027.2,020.1,11.8,0002.4,0014.27,0008.59,0008.03
2024-01-20 09:36:00,SystemResetWarning,0830.0,5.01,000.00,018.8,018.2,000.0,027.2,020.5,11.7,0002.6,0014.26,0008.63,0008.07
2024-01-20 09:37:00,SystemResetWarning,0830.1,5.00,000.00,018.9,018.9,000.0,027.2,020.8,11.7,0002.8,0015.09,0008.78,0008.17
2024-01-20 09:38:00,SystemResetWarning,0830.0,4.99,000.00,019.0,019.1,000.0,027.2,020.7,11.8,0002.7,0015.72,0009.00,0008.31
2024-01-20 09:39:00,SystemResetWarning,0830.1,5.00,000.00,019.0,018.9,000.0,027.2,020.4,11.9,0002.5,0016.03,0009.23,0008.51
2024-01-20 09:40:00,SystemResetWarning,0830.0,5.01,000.00,019.0,018.8,000.0,027.2,020.3,11.9,0002.8,0016.38,0009.47,0008.72
2024-01-20 09:41:00,SystemResetWarning,0830.0,5.00,000.00,019.0,018.7,000.0,027.2,020.1,11.9,0002.9,0016.28,0009.61,0008.81
2024-01-20 09:42:00,SystemResetWarning,0830.0,5.00,000.00,018.9,018.5,000.0,027.2,020.0,12.0,0003.1,0016.41,0009.51,0008.74
2024-01-20 09:43:00,SystemResetWarning,0830.0,5.00,000.00,018.9,018.4,000.0,027.3,020.0,12.0,0003.0,0015.94,0009.36,0008.58
2024-01-20 09:44:00,SystemResetWarning,0830.0,5.00,000.00,018.9,018.4,000.0,027.3,020.0,11.9,0003.2,0016.01,0009.21,0008.37
2024-01-20 09:45:00,SystemResetWarning,0830.0,5.00,000.00,018.8,018.3,000.0,027.3,020.0,11.9,0003.0,0015.10,0008.97,0008.14
2024-01-20 09:46:00,SystemResetWarning,0830.1,5.00,000.00,018.8,018.2,000.0,027.3,020.0,12.0,0002.8,0014.65,0008.73,0007.92
2024-01-20 09:47:00,SystemResetWarning,0830.1,5.00,000.00,018.8,018.2,000.0,027.2,020.0,12.0,0002.5,0013.90,0008.37,0007.61
2024-01-20 09:48:00,SystemResetWarning,0830.0,5.00,000.00,018.8,018.1,000.0,027.2,020.0,12.0,0002.2,0012.58,0007.94,0007.24
2024-01-20 09:49:00,SystemResetWarning,0830.0,5.00,000.00,018.8,018.1,000.0,027.3,020.0,12.1,0001.7,0011.64,0007.54,0006.89
2024-01-20 09:50:00,SystemResetWarning,0830.0,5.00,000.00,018.8,018.1,000.0,027.3,020.0,12.1,0002.3,0011.39,0007.13,0006.50
2024-01-20 09:51:00,SystemResetWarning,0830.0,5.01,000.00,018.8,018.1,000.0,027.3,020.0,12.1,0000.1,0011.19,0006.80,0006.17
2024-01-20 09:52:00,SystemResetWarning,0829.9,5.01,000.00,018.8,018.0,000.0,027.3,020.0,12.1,0000.0,0011.17,0006.55,0005.94
2024-01-20 09:53:00,SystemResetWarning,0829.9,5.00,000.00,018.8,018.0,000.0,027.3,020.0,12.1,0000.0,0010.98,0006.50,0005.89
2024-01-20 09:54:00,SystemResetWarning,0829.9,4.99,000.00,018.8,017.9,000.0,027.3,020.0,12.0,0000.0,0010.79,0006.50,0005.89
2024-01-20 09:55:00,SystemResetWarning,0829.9,4.99,000.00,018.8,017.9,000.0,027.3,020.0,11.9,0000.0,0010.79,0006.60,0006.00
2024-01-20 09:56:00,SystemResetWarning,0829.9,5.00,000.00,018.7,017.9,000.0,027.3,020.0,11.9,0000.0,0010.81,0006.65,0006.06
2024-01-20 09:57:00,SystemResetWarning,0829.9,5.00,000.00,018.7,017.9,000.0,027.3,020.0,11.8,0000.0,0010.91,0006.70,0006.11
2024-01-20 09:58:00,SystemResetWarning,0829.9,5.00,000.00,018.7,017.9,000.0,027.3,020.0,11.8,0000.0,0011.19,0006.86,0006.24
2024-01-20 09:59:00,SystemResetWarning,0829.8,5.01,000.00,018.7,017.9,000.0,027.3,020.0,11.7,0000.0,0011.78,0007.05,0006.39
